Temp
27 26 26 26 26 26 25 25 25 25 25 25 25 25 25 26 26 26 26 26 26 25 25 25 25 25 25 25 25 25 25 24 24 24 24 24 24 24 25 24 24 23 23 23 23 23 23 23 23 23 23 23 23 23 23 23 23 23 23 23 23 23 23 23 24 25 24 24 24 24 24 23 23 22 22 22 22 21 21 21 21 21 21 22 21
28 27 26 26 26 26 26 26 25 25 25 25 25 26 26 26 26 26 26 26 26 26 25 25 25 25 25 25 25 25 25 24 24 24 24 24 24 24 24 24 24 23 23 23 23 23 23 23 23 23 23 23 23 23 23 23 23 23 23 23 23 23 23 23 24 24 24 24 23 23 23 22 23 22 22 22 22 21 21 21 21 21 21 22 22
28 27 27 26 26 26 26 26 26 26 26 26 26 26 26 26 25 26 26 26 26 26 26 26 25 25 25 25 25 25 25 24 24 25 24 24 24 24 24 24 24 23 23 23 23 23 23 23 23 23 23 23 23 23 23 23 23 24 23 23 23 24 23 23 23 24 24 24 24 23 23 22 22 22 22 22 22 22 21 21 21 21 21 21 21
29 28 27 27 27 26 26 26 26 26 26 27 27 27 27 26 26 26 26 27 26 26 26 26 25 25 25 25 25 25 25 24 25 25 24 24 24 24 24 24 24 23 24 24 23 23 23 23 23 23 23 23 23 23 23 23 23 23 23 23 23 23 23 23 23 23 24 24 24 24 23 23 22 22 22 22 21 21 21 21 21 21 21 21 21
30 29 28 27 27 27 27 27 27 27 27 27 27 27 27 27 27 26 26 27 27 26 26 26 26 25 25 25 25 25 24 24 25 25 25 24 24 24 24 24 24 24 24 24 24 23 23 23 24 24 23 23 23 23 23 23 23 23 23 23 23 23 23 23 23 23 23 23 24 23 23 23 22 22 22 22 22 22 21 21 21 21 21 21 21
31 30 29 28 28 27 27 27 27 27 27 28 28 28 28 28 28 27 26 27 27 27 26 26 26 25 25 25 25 25 25 24 24 25 25 24 24 25 25 24 24 24 24 24 24 23 23 23 24 24 23 23 23 23 23 23 23 23 23 23 23 23 23 23 23 23 23 23 23 23 23 22 22 22 22 21 22 22 22 21 21 20 20 21 21
31 30 30 29 28 28 28 28 28 28 28 28 28 28 28 28 28 28 27 27 27 27 27 26 26 25 25 25 25 25 25 24 24 24 25 25 24 25 25 24 24 24 24 24 24 24 23 23 24 24 23 23 23 23 23 23 23 23 23 23 23 23 23 23 23 22 23 23 23 23 23 23 22 22 22 21 21 21 22 21 21 21 20 20 21
31 31 30 30 29 28 28 28 28 28 28 28 28 28 28 28 28 28 28 27 27 28 28 27 26 26 25 25 25 25 25 25 24 24 24 25 25 25 25 25 24 24 24 24 24 24 24 24 24 24 23 23 23 23 23 23 23 23 23 23 23 23 23 23 23 22 23 23 23 23 23 23 22 22 22 21 21 21 21 21 21 21 21 21 20
31 31 30 30 29 29 29 28 28 27 28 27 27 27 28 28 28 28 28 27 27 28 28 28 27 26 26 25 25 25 25 25 25 24 24 24 25 25 25 25 25 25 24 24 24 24 24 24 24 24 24 23 23 23 23 23 23 23 23 22 22 22 22 23 23 23 23 23 23 23 23 23 22 22 22 21 21 21 21 21 21 21 21 21 21
31 31 31 30 29 29 28 28 28 27 27 27 27 27 27 28 28 28 27 27 27 27 28 28 27 27 26 25 25 25 25 25 25 25 25 24 24 25 25 24 25 25 24 24 24 24 24 24 24 24 24 23 23 23 23 23 23 23 23 22 22 22 22 22 23 23 23 23 23 23 23 23 23 23 22 22 22 21 21 21 21 21 21 20 21
31 31 31 30 29 28 28 28 27 27 27 27 26 26 27 27 27 27 27 27 27 27 27 27 28 27 27 26 26 25 25 25 25 25 25 25 24 24 25 24 24 24 24 24 24 24 24 24 24 24 23 23 23 22 22 22 22 23 22 22 22 22 22 22 22 23 23 23 23 23 23 23 23 23 23 23 22 21 21 21 21 21 21 21 21
31 30 30 30 29 28 28 27 27 27 26 26 26 26 26 27 27 27 27 27 26 26 27 27 27 27 27 27 26 26 26 25 25 25 25 25 24 24 25 24 24 24 24 24 24 24 24 24 24 24 23 23 22 22 22 22 22 22 22 22 21 22 22 22 22 23 23 23 23 23 23 23 23 23 23 23 22 21 21 21 20 20 20 20 21
31 30 30 29 29 28 28 27 27 27 26 26 26 26 26 26 27 27 26 26 26 26 26 26 26 27 27 27 26 26 26 26 25 25 25 25 25 24 24 25 25 24 24 24 24 24 24 24 24 24 23 23 22 22 21 21 22 22 22 21 21 21 21 21 22 22 22 22 23 23 23 23 22 22 22 22 21 21 21 21 20 20 20 20 20
31 30 29 29 28 28 28 27 27 27 26 26 26 26 26 26 26 26 26 26 26 26 26 26 26 26 26 26 26 26 26 26 25 25 25 25 25 24 24 24 25 24 24 24 24 24 24 24 24 24 23 23 22 22 21 21 21 21 21 21 20 21 21 21 21 21 21 21 22 22 22 22 22 22 21 20 20 21 21 21 20 20 20 19 19
32 30 29 29 28 28 28 27 27 27 26 26 26 26 26 26 26 26 27 26 26 26 26 26 26 25 26 26 26 26 26 26 25 25 25 25 25 24 24 24 24 24 24 24 24 24 24 24 24 24 23 23 22 22 22 21 21 21 20 20 20 20 21 20 20 20 20 20 21 22 22 21 21 21 20 20 20 20 20 19 19 19 19 19 19
32 31 30 29 29 28 28 28 27 27 27 26 26 26 26 26 26 26 26 26 26 26 26 26 26 26 26 26 26 26 26 26 25 25 25 24 24 24 23 23 24 24 24 24 24 24 24 24 24 24 23 23 22 22 22 21 21 21 21 20 21 21 21 21 20 20 20 21 21 22 22 21 21 20 20 19 19 19 19 19 19 19 19 20 20
31 31 30 29 29 28 28 28 27 27 27 27 26 26 26 26 26 26 26 26 26 26 26 26 26 26 26 26 26 26 26 26 25 25 25 24 24 23 23 23 23 24 24 24 24 24 24 24 24 24 23 23 22 22 22 21 21 22 21 21 21 21 21 21 20 20 20 21 21 21 21 21 20 20 20 20 19 19 19 20 20 20 21 21 21
31 30 30 29 29 28 28 28 28 27 27 27 27 26 26 26 26 26 26 26 26 26 26 26 26 26 26 26 26 26 26 26 25 25 25 24 24 23 22 22 23 23 24 24 24 24 24 24 24 23 23 23 22 22 22 21 21 22 21 21 21 21 21 21 20 19 19 20 20 20 20 20 20 20 19 20 19 19 19 19 20 21 21 21 21
31 30 30 29 29 28 28 28 28 27 27 27 27 27 26 26 26 26 26 26 26 27 27 27 27 27 26 26 26 26 26 26 26 25 25 24 23 23 22 23 23 24 24 24 24 24 24 23 23 23 23 23 22 22 22 21 21 21 21 21 21 22 22 21 20 19 19 19 19 19 19 19 19 19 19 19 19 18 18 18 19 20 20 20 21
31 30 30 29 28 28 28 28 28 28 27 27 27 27 27 26 26 26 26 26 27 27 27 27 27 27 27 27 26 26 26 26 26 26 25 24 23 23 22 23 23 24 24 24 24 24 24 23 23 22 22 22 22 22 22 21 21 21 21 21 21 21 22 21 20 20 19 19 19 19 19 19 18 18 18 18 17 17 17 18 19 19 19 20 21
30 30 30 29 28 28 28 28 28 28 27 27 27 27 27 27 26 26 27 27 27 27 27 27 27 27 27 27 27 27 26 26 26 26 25 24 24 23 22 23 24 24 24 24 24 24 24 24 23 23 22 21 21 21 21 21 21 20 21 21 21 21 22 21 20 20 20 20 20 19 19 18 19 19 18 17 17 17 17 18 19 19 19 20 20
30 29 29 29 29 28 28 28 28 28 27 27 27 27 27 27 27 27 27 27 27 27 27 27 27 27 27 27 27 27 27 26 26 26 25 25 24 23 22 23 23 24 24 24 24 25 24 24 23 23 22 21 21 21 21 21 21 20 20 21 21 21 21 21 20 20 20 20 20 20 19 19 19 20 19 19 19 19 18 18 19 19 19 19 19
29 29 29 29 29 28 28 28 28 28 28 27 27 27 27 27 27 27 27 27 27 27 27 27 27 27 27 27 27 27 26 26 26 26 25 25 24 23 23 23 23 24 24 25 24 24 24 24 23 23 22 21 20 20 21 21 20 20 20 20 20 21 21 21 20 20 20 20 20 20 20 20 20 20 20 20 20 19 19 19 18 18 18 18 18
29 29 29 29 29 28 28 28 28 28 28 27 27 27 27 27 27 27 26 27 27 27 27 27 27 27 27 27 27 27 27 26 26 26 25 25 24 24 23 23 23 23 24 25 25 24 24 24 23 22 22 21 20 20 20 20 20 20 19 20 20 20 20 21 20 20 20 20 20 20 20 20 20 20 20 20 20 19 18 19 18 18 18 17 17
29 29 29 29 28 28 28 28 28 28 28 28 27 27 27 27 27 27 27 27 27 27 27 27 27 27 27 27 27 27 27 27 26 26 25 25 24 24 23 22 22 23 23 24 25 25 24 23 23 22 21 21 20 19 20 20 20 20 19 19 19 20 20 20 20 20 20 20 20 20 20 20 20 20 19 19 19 18 18 18 18 17 17 17 16
28 29 29 29 28 28 28 28 28 28 28 28 28 27 27 27 27 27 27 27 27 27 27 28 27 27 27 27 27 27 27 27 26 26 25 25 24 24 23 22 22 22 23 24 24 24 23 23 22 22 20 20 19 19 19 20 19 19 19 19 19 20 20 20 20 20 20 20 20 20 20 20 20 19 19 18 18 17 17 17 17 17 17 17 16
28 28 29 29 28 28 28 28 29 29 28 28 28 28 27 28 28 27 27 27 27 27 27 27 27 28 27 27 27 27 27 27 27 26 25 24 23 23 22 22 22 21 22 23 24 24 23 22 22 21 20 19 19 19 20 19 18 18 18 18 19 19 20 20 20 20 20 21 21 21 20 20 19 18 17 17 17 17 17 17 17 18 18 17 17
28 28 28 28 29 28 28 28 29 29 29 28 28 28 28 28 28 28 28 28 28 28 28 28 28 28 28 28 28 28 27 27 27 27 25 23 22 22 21 21 20 20 20 22 23 22 22 22 21 20 19 18 17 17 18 18 17 17 17 18 18 19 19 20 20 20 20 20 21 20 20 19 18 18 18 18 18 18 17 17 17 18 18 18 17
27 27 28 28 28 28 28 28 28 28 29 28 28 28 28 28 28 28 28 28 27 27 27 28 28 28 28 28 28 28 27 28 27 27 26 24 23 22 21 21 20 20 20 21 21 21 21 21 19 18 17 16 16 16 16 16 16 16 17 18 19 19 19 19 19 19 19 20 20 20 19 19 18 18 18 18 18 18 18 17 17 17 18 17 17
25 26 26 27 26 26 27 27 27 28 29 29 28 28 27 27 26 26 26 26 25 25 25 25 25 25 25 25 26 26 26 27 27 27 26 26 24 23 22 22 21 20 20 20 20 19 19 19 17 16 16 16 16 16 16 16 16 17 17 18 19 19 19 19 19 19 19 20 20 19 19 19 19 19 19 19 18 18 18 17 17 17 17 17 18
24 24 24 24 24 25 26 26 26 26 27 28 28 27 26 26 25 25 25 24 24 25 25 24 24 24 24 24 24 25 25 26 26 26 26 25 25 24 22 22 22 21 21 20 19 18 18 17 16 16 16 16 16 16 16 16 16 17 17 18 18 19 19 19 19 19 19 19 19 19 19 19 19 19 19 19 19 19 18 17 16 17 17 17 18
25 24 24 23 23 24 25 25 25 25 26 26 26 25 25 25 25 25 24 24 25 25 25 25 25 25 25 24 24 24 24 25 25 25 24 24 24 24 23 21 21 22 21 19 18 18 17 16 16 16 16 16 16 16 16 16 17 17 17 17 17 18 18 18 19 19 18 19 19 19 19 19 19 19 19 19 19 19 18 17 17 17 17 17 18
24 24 24 24 23 24 24 25 25 25 25 25 25 25 25 26 26 26 25 25 24 24 24 25 25 24 24 24 23 23 23 24 24 24 23 23 23 23 22 21 21 21 20 18 18 18 17 16 16 16 16 16 16 16 16 16 16 16 16 16 17 17 17 18 18 18 18 19 19 19 19 19 20 19 19 19 19 19 19 18 18 18 18 18 18
22 22 23 23 23 23 24 24 24 24 24 24 25 25 25 25 25 25 25 25 25 24 24 24 23 23 22 22 21 21 21 21 21 21 21 20 20 21 22 21 20 20 20 18 18 17 17 17 17 16 16 16 16 16 16 16 16 16 16 16 17 17 17 18 18 18 18 19 19 20 19 19 20 20 19 20 19 19 19 19 18 18 18 18 18
21 21 21 22 22 23 23 23 23 23 23 23 24 24 24 24 24 24 24 24 24 24 24 24 23 21 20 19 18 17 17 16 16 17 16 16 16 18 19 18 17 17 17 17 18 17 17 17 17 16 16 16 16 17 17 16 16 16 16 16 17 17 17 17 17 18 18 19 19 20 19 19 20 19 19 20 20 19 19 19 19 19 18 18 18
22 22 22 22 22 22 22 23 23 22 22 23 23 23 23 23 23 24 23 23 23 23 23 22 21 20 19 18 17 15 14 14 15 15 15 15 15 15 16 16 15 14 15 16 17 17 17 17 16 16 16 16 16 17 17 17 16 16 16 17 17 17 17 17 17 18 18 18 19 20 19 19 19 19 19 20 20 19 19 19 19 18 18 18 18
22 22 22 22 22 22 22 22 21 21 21 22 22 23 23 23 23 23 23 23 22 21 21 20 19 19 19 17 16 14 13 13 13 14 15 15 14 13 14 15 16 15 15 17 17 17 17 17 16 16 16 16 16 17 17 16 16 16 17 17 17 17 17 17 17 18 18 18 19 19 19 19 19 19 19 20 20 19 19 19 18 18 18 17 17
20 20 20 21 21 22 23 22 21 21 21 22 23 23 23 23 22 22 23 22 21 20 20 20 19 19 19 17 15 14 13 12 13 14 14 14 13 12 13 15 16 15 16 17 17 16 16 16 16 16 16 16 16 17 16 17 17 17 17 18 17 17 17 17 17 18 18 18 19 19 19 19 19 19 19 19 19 18 18 18 18 18 17 16 16
21 20 19 20 21 22 22 22 22 22 22 23 23 22 22 22 22 22 22 22 21 21 20 20 19 18 17 16 15 14 14 14 14 14 14 14 13 12 12 14 15 16 16 17 17 16 16 16 16 16 16 16 16 17 17 17 17 17 17 17 17 17 17 17 17 17 18 18 19 18 18 19 19 19 19 19 19 18 18 18 18 18 17 16 16
22 21 20 21 21 22 22 22 22 22 22 22 22 22 22 22 22 22 22 21 21 20 20 19 18 17 16 14 14 14 15 15 15 15 15 15 14 13 13 14 15 16 16 16 16 16 16 16 16 16 16 16 17 17 17 17 17 17 17 17 17 17 17 17 17 17 18 18 19 18 18 19 18 18 18 18 18 18 18 18 18 18 17 17 17
22 22 21 21 22 22 23 22 22 22 22 22 22 22 22 21 21 21 21 21 20 20 20 19 18 16 15 14 14 15 16 16 15 15 15 16 15 14 15 15 16 16 16 15 15 16 16 16 16 16 16 16 17 17 17 17 17 17 17 17 17 17 17 17 17 18 18 19 18 18 18 18 18 18 18 18 18 18 18 17 17 17 17 17 17
22 22 22 21 22 22 23 22 22 22 22 22 22 22 22 22 21 21 21 20 20 19 19 18 18 16 15 15 15 15 16 16 16 15 16 16 16 15 15 15 16 16 15 15 15 16 16 16 16 16 16 16 17 17 17 17 17 17 17 17 17 17 17 18 18 18 18 18 18 18 18 18 18 18 18 17 17 17 17 17 17 17 17 17 16
21 21 21 21 21 21 22 22 22 22 22 22 22 21 21 22 22 21 21 20 20 19 18 18 17 16 15 15 15 15 15 15 15 16 17 18 18 17 16 16 17 17 16 16 16 16 16 16 16 16 17 17 17 17 17 17 17 17 17 17 18 18 18 18 18 18 18 18 18 18 18 18 17 17 17 17 17 17 17 17 17 17 17 17 16
21 21 21 21 21 21 21 21 22 22 21 21 21 21 22 22 22 22 22 21 20 19 19 18 17 16 15 15 15 15 15 15 14 15 16 17 18 18 17 17 17 17 16 15 16 16 16 16 16 16 17 17 17 17 17 17 17 17 17 17 18 18 18 18 18 18 18 18 18 18 17 17 17 17 17 17 17 17 17 17 16 16 17 17 16
21 21 21 21 21 21 20 20 21 21 21 21 21 22 22 22 22 22 22 22 21 21 20 19 18 17 16 16 15 15 15 15 14 14 14 15 15 16 16 16 16 16 16 15 16 16 16 16 16 16 16 16 17 17 17 17 17 17 17 18 18 18 18 18 18 18 18 18 18 17 17 17 17 17 17 17 17 17 17 17 16 16 16 16 16
20 20 20 21 20 20 20 20 20 20 20 20 21 21 21 21 21 21 21 21 21 21 21 21 20 19 18 17 16 16 15 15 15 14 14 14 14 14 15 15 15 15 15 16 16 17 17 16 16 16 16 16 16 17 17 17 17 17 18 18 18 18 18 18 18 18 18 18 18 17 17 17 17 17 17 17 17 17 17 17 16 16 16 16 16
19 19 19 20 20 20 19 19 19 19 19 19 19 19 19 19 20 20 19 19 19 20 20 20 20 20 19 19 18 17 17 16 16 16 15 14 14 14 15 15 15 15 15 15 16 16 16 16 16 16 16 16 16 16 17 17 17 17 18 18 18 18 18 18 18 18 17 17 18 18 17 17 17 17 17 17 17 16 16 16 16 16 16 15 15
19 19 19 19 19 19 19 19 19 19 19 18 18 18 18 17 18 18 18 18 18 19 19 19 19 20 20 19 19 19 18 18 18 17 16 15 15 15 16 16 16 16 16 16 16 16 16 16 16 16 16 17 17 16 17 17 17 17 17 18 18 18 18 17 17 17 17 17 17 17 17 17 17 17 17 16 16 16 16 16 16 16 15 15 15
18 18 18 18 19 19 19 19 19 18 18 18 18 18 17 17 16 16 17 17 17 17 17 17 17 18 18 18 19 19 19 19 18 18 17 16 16 15 16 16 16 16 16 16 16 16 16 16 16 16 17 17 17 17 16 16 17 17 17 17 18 18 17 17 17 17 17 17 17 17 17 17 17 17 16 16 15 16 16 15 15 15 15 15 15
17 17 17 17 18 18 18 18 18 18 18 18 18 18 17 17 16 15 15 16 16 16 16 16 16 15 15 16 17 18 19 19 18 17 17 17 16 16 16 16 16 16 16 16 16 16 16 16 16 16 16 17 17 16 16 17 17 17 17 17 17 17 17 16 16 16 16 16 16 16 16 16 16 16 16 15 15 15 15 15 15 15 15 15 15
16 16 16 16 17 17 17 17 17 17 17 17 17 17 16 16 15 15 14 14 15 15 15 15 15 14 14 14 14 15 16 17 17 17 17 17 17 16 16 16 16 16 16 16 16 16 16 16 16 16 16 16 16 16 17 17 17 17 17 17 17 17 16 16 16 16 16 16 16 16 16 15 15 15 15 15 15 15 14 14 14 14 14 14 14
Height
746 750 752 756 759 762 766 769 772 776 778 780 782 784 786 788 790 792 794 796 797 799 800 802 804 806 807 809 811 814 815 817 819 820 821 823 824 826 827 829 831 832 833 833 834 835 836 838 839 840 842 842 843 844 845 846 847 847 848 849 849 850 851 851 851 850 850 851 852 852 853 854 854 855 856 856 856 856 856 857 857 856 856 856 856
740 744 747 751 753 756 760 763 766 770 773 775 777 779 782 783 786 788 790 791 793 795 796 798 800 801 803 805 807 809 811 813 816 817 818 819 820 822 823 825 827 828 829 830 831 833 834 835 837 838 839 840 841 842 843 843 844 845 845 846 847 847 848 849 849 849 848 849 851 851 852 853 853 853 854 855 855 855 855 855 855 855 855 855 855
734 738 742 744 747 751 755 758 761 764 767 770 772 774 777 779 781 783 785 787 789 790 792 793 795 797 799 801 803 805 808 810 812 814 814 815 817 818 819 821 823 825 826 826 828 830 831 832 834 835 836 837 839 840 841 841 842 842 843 844 845 845 846 847 848 848 847 847 848 849 850 851 852 852 853 853 853 854 853 853 853 853 853 853 853
729 733 736 739 742 746 749 752 756 758 761 764 766 769 772 774 776 777 780 782 784 785 787 789 791 793 795 797 799 802 804 806 808 810 811 812 813 815 816 817 819 820 821 823 825 826 828 829 830 832 834 835 836 837 838 838 839 840 841 842 843 844 845 845 846 847 847 846 847 847 848 849 850 851 851 851 852 852 852 852 851 851 851 851 851
724 727 730 734 737 740 743 747 750 752 755 758 761 764 766 769 770 772 774 777 779 781 783 785 787 788 791 793 796 798 800 802 804 806 807 808 809 811 812 813 814 816 818 819 821 823 824 826 827 829 831 832 833 834 835 836 837 838 839 840 841 842 843 844 844 845 845 845 845 846 847 847 848 849 849 849 849 849 850 850 850 850 850 850 850
717 721 725 728 731 734 737 740 743 746 749 752 755 758 761 763 765 767 769 771 774 776 778 780 782 784 787 790 792 794 796 798 800 802 803 804 806 808 809 810 811 812 814 815 817 819 820 822 824 825 827 828 829 830 832 833 834 836 837 837 839 840 840 841 842 843 843 844 844 844 845 845 846 846 847 848 848 848 848 848 848 848 848 848 848
712 715 719 722 725 727 730 734 737 740 744 747 750 753 755 757 759 762 764 766 769 771 774 776 778 780 783 785 788 790 792 794 795 797 799 800 802 804 805 806 807 808 810 811 813 815 816 818 820 822 823 824 826 827 828 830 831 832 834 835 836 837 838 839 840 841 841 842 842 842 842 843 844 844 845 846 846 846 846 846 846 847 847 847 847
707 710 713 716 719 721 724 728 731 735 739 742 745 747 749 752 754 757 760 761 764 766 768 771 774 776 779 781 783 786 787 789 791 792 794 796 798 800 801 803 804 805 806 807 809 811 812 814 816 817 819 820 822 824 825 826 828 829 831 832 833 834 835 836 837 838 838 839 839 840 840 841 841 842 843 843 844 844 844 844 844 844 845 845 845
701 705 708 710 712 716 720 724 727 731 734 737 740 742 744 747 750 753 755 757 759 761 764 767 769 771 774 776 778 780 782 784 785 787 789 791 794 796 797 799 800 802 803 804 805 807 808 810 812 813 815 816 818 820 821 823 824 826 827 828 830 831 832 833 834 834 835 836 836 837 837 838 838 839 840 840 841 842 842 842 842 843 843 843 843
697 700 703 705 708 712 716 720 723 726 729 731 734 737 740 743 746 748 750 753 755 757 760 763 765 767 769 771 773 775 776 778 779 781 784 787 790 792 793 795 797 798 799 800 801 803 804 806 807 809 811 812 814 815 817 819 820 822 824 824 826 827 828 830 830 831 832 832 833 834 834 834 834 835 836 837 838 839 840 840 841 841 841 841 841
693 696 698 701 705 709 712 715 718 721 724 727 729 732 736 739 741 744 746 749 751 753 756 758 760 762 764 765 768 769 770 772 774 776 779 782 785 788 789 791 793 794 796 796 797 799 800 802 803 805 806 808 810 811 813 815 816 818 820 821 822 823 824 826 827 828 829 829 830 830 830 830 831 832 833 834 835 837 837 838 839 839 839 839 839
689 692 694 698 702 704 707 711 714 717 720 723 726 729 732 735 738 740 742 745 747 749 751 754 755 757 759 760 762 763 764 766 768 770 773 777 780 783 786 787 788 790 791 792 793 795 796 797 799 801 802 803 805 807 809 811 813 815 817 818 819 819 820 822 823 825 826 827 827 827 827 828 829 830 831 832 833 834 835 836 837 837 837 837 837
686 689 692 696 698 700 704 707 709 713 715 719 723 726 729 731 733 736 738 741 743 745 747 749 751 753 754 755 757 758 759 760 762 764 768 771 775 778 781 783 784 785 787 788 790 790 792 793 794 796 797 799 801 803 805 806 809 811 813 814 815 816 817 819 820 821 823 824 824 824 825 825 826 827 828 830 831 832 833 834 835 835 836 835 835
683 686 690 693 695 698 701 703 706 709 712 716 720 722 725 727 730 733 735 737 739 741 743 745 747 748 750 751 752 753 754 755 756 759 762 765 769 772 776 778 780 781 783 784 785 786 787 788 789 791 793 794 796 799 801 803 805 807 809 811 812 813 814 815 817 818 820 821 821 822 822 823 824 825 826 828 829 830 831 832 833 833 834 834 834
679 682 685 688 690 693 695 698 702 706 709 713 716 718 721 723 726 729 731 733 734 736 739 740 741 743 745 747 748 748 749 750 751 753 756 760 764 767 771 774 775 776 778 779 781 782 783 784 785 786 788 789 791 794 797 799 801 803 805 807 808 810 811 812 813 815 816 818 819 820 820 821 822 823 824 826 827 828 829 830 831 832 832 832 832
674 677 679 680 683 686 689 693 697 701 705 708 711 714 716 717 720 723 726 728 730 731 734 735 736 738 741 743 743 743 744 745 745 747 750 754 759 762 765 768 769 770 772 774 776 778 779 780 781 782 784 785 786 789 793 796 798 800 802 803 805 807 808 809 810 812 814 815 817 817 818 818 819 821 822 824 825 826 827 828 829 830 830 829 829
669 671 672 674 676 680 684 688 691 695 699 702 704 707 709 711 714 717 720 722 724 725 727 729 731 733 734 735 736 736 738 739 740 742 745 748 752 756 759 761 763 764 767 769 771 773 775 776 778 779 780 781 782 785 789 792 795 797 799 800 802 804 805 806 808 810 811 812 814 815 815 816 817 819 820 821 823 824 826 826 827 826 826 826 826
663 665 667 670 673 677 681 684 687 690 693 695 697 699 702 705 709 712 714 716 718 720 722 724 725 726 727 728 729 731 733 734 735 737 739 741 744 748 751 754 757 759 762 765 767 769 771 772 774 776 776 777 778 781 785 788 792 794 796 797 799 800 802 803 805 807 809 811 812 813 815 816 816 817 818 819 821 822 824 824 824 824 824 824 824
658 661 664 668 671 674 677 680 683 685 687 689 691 694 697 701 704 707 710 712 714 717 719 720 721 721 723 724 726 729 730 731 732 733 734 736 738 742 745 748 750 753 756 759 761 763 765 767 768 771 773 773 774 777 780 784 787 790 792 794 795 797 799 801 803 805 807 809 811 812 813 815 815 816 816 817 819 820 821 822 823 823 823 823 822
657 660 664 666 669 671 673 676 678 679 682 684 687 691 694 697 699 702 704 707 710 713 714 716 717 718 719 721 723 725 726 727 728 728 730 731 733 736 739 740 741 744 748 751 754 756 758 760 761 764 767 769 770 773 776 779 783 786 788 790 792 794 796 798 800 803 805 807 809 811 812 814 815 815 815 815 817 818 819 820 821 822 822 821 821
656 659 661 663 666 667 670 672 674 677 680 683 686 689 691 694 696 698 700 703 706 708 710 712 713 714 715 716 718 719 719 721 723 723 724 726 728 731 733 733 733 737 740 743 746 747 750 752 754 756 760 764 766 768 772 775 779 782 784 786 789 791 794 796 798 801 803 805 808 809 811 812 814 814 814 814 815 816 818 819 820 820 820 820 819
654 656 658 660 663 665 667 670 673 676 680 682 685 687 690 692 695 696 699 701 702 704 707 709 710 711 711 712 713 713 714 715 717 718 719 721 723 726 728 728 729 732 734 736 738 739 742 745 747 749 753 756 760 763 767 771 774 777 780 783 786 789 791 793 795 798 800 802 805 807 808 810 812 812 812 812 813 814 816 817 818 819 819 819 819
652 654 656 658 660 662 665 668 671 674 677 679 682 685 687 690 692 694 696 698 700 702 703 704 705 706 707 707 708 708 709 710 712 713 713 715 718 719 721 724 726 727 728 729 730 732 734 738 741 743 746 750 754 758 762 766 769 773 776 780 783 786 789 791 793 795 797 799 801 803 805 807 808 809 809 809 810 812 814 815 816 817 818 818 818
651 653 655 656 659 661 663 666 668 671 673 676 678 681 683 686 688 690 693 695 696 697 698 700 701 701 701 702 703 704 705 706 707 707 707 709 711 712 714 719 722 723 724 724 724 725 727 729 732 736 740 744 748 752 756 760 764 768 772 776 779 783 786 788 789 791 793 795 798 800 801 803 804 805 806 806 808 810 812 814 815 816 816 817 816
650 652 653 655 657 659 661 664 666 668 670 673 675 677 679 682 684 686 688 690 692 692 693 694 696 696 697 698 698 698 699 701 702 701 701 702 704 706 710 715 719 722 722 721 721 720 721 723 726 730 734 737 742 746 751 754 758 763 767 772 776 779 782 784 786 788 789 791 794 796 798 800 802 803 803 804 806 808 811 812 813 814 815 815 815
649 650 652 654 656 658 659 661 663 665 668 670 671 673 676 678 680 682 684 686 687 688 689 690 691 692 693 693 693 693 694 696 696 696 696 697 699 702 706 710 714 717 718 719 721 721 721 722 724 726 729 732 736 740 744 749 754 759 764 768 772 775 778 780 782 784 786 788 791 793 796 799 801 801 801 802 804 806 808 810 811 812 814 814 813
648 650 651 653 655 656 658 660 661 663 665 667 669 671 673 675 676 678 680 682 682 683 685 687 687 687 687 687 688 689 690 690 690 690 690 690 691 695 699 702 706 710 713 716 720 721 722 723 725 727 729 731 734 737 741 746 751 755 760 765 768 771 774 777 778 780 782 785 788 790 793 797 799 800 799 800 802 804 806 808 809 810 811 812 811
648 649 651 652 654 655 657 659 660 662 664 666 668 669 671 673 674 674 676 678 679 679 681 682 683 683 683 683 683 684 684 684 684 684 684 683 685 689 693 696 700 704 708 713 716 717 719 723 726 728 729 730 733 736 739 743 747 751 756 761 764 767 772 775 776 777 779 782 784 787 790 794 797 798 797 798 800 802 804 806 806 807 809 809 808
648 650 651 653 654 656 657 659 660 662 663 665 667 668 669 670 671 672 674 676 676 676 677 678 679 680 680 680 680 680 679 678 679 681 681 680 681 683 685 688 692 697 704 709 712 714 716 718 722 724 725 726 729 732 735 739 744 749 754 757 760 764 768 771 771 772 775 778 780 783 787 791 794 795 795 796 798 800 802 803 804 805 807 807 805
651 652 653 654 656 657 658 659 661 662 663 664 665 667 668 669 670 672 673 674 675 676 677 678 679 679 679 678 678 677 676 674 675 677 677 676 675 676 678 680 684 689 695 700 702 704 706 709 713 717 719 721 724 727 731 735 740 746 750 752 755 758 763 766 766 767 770 772 774 778 783 788 791 792 792 793 795 797 799 801 802 804 805 804 802
653 654 655 657 657 658 659 661 662 664 664 665 665 667 669 670 671 672 673 674 675 676 677 678 678 679 678 676 675 674 673 671 671 671 671 670 670 670 672 674 676 680 685 690 693 693 693 696 702 708 712 715 717 722 727 732 737 741 745 747 749 753 759 761 762 764 767 768 770 774 779 784 787 788 789 790 792 794 796 798 800 801 802 801 799
654 655 657 658 659 659 660 661 662 664 665 666 667 669 670 671 672 673 673 674 674 676 676 676 676 676 676 674 672 670 668 666 665 665 665 665 665 664 665 666 668 671 676 679 681 682 684 687 693 698 703 706 710 715 721 727 733 736 738 741 745 750 755 758 759 762 764 765 767 771 776 781 784 786 786 787 789 791 793 795 797 798 799 798 796
657 657 659 659 660 660 661 662 663 664 665 666 668 669 670 670 671 672 673 673 674 674 675 675 674 673 672 671 669 666 662 660 659 658 658 658 659 659 658 658 659 663 667 669 669 671 674 677 682 687 689 692 698 704 709 717 725 730 733 736 739 745 751 755 757 759 760 760 763 768 773 778 781 783 784 785 787 788 789 791 793 795 796 795 793
660 660 661 661 662 662 663 663 664 665 666 668 668 669 670 671 672 672 672 672 673 673 672 672 671 670 669 667 665 661 657 654 652 650 651 652 653 652 651 651 653 655 656 657 661 665 667 668 672 677 680 682 687 693 699 707 716 723 729 733 736 742 750 755 756 755 754 755 758 763 770 775 778 780 782 782 783 785 786 787 789 791 792 792 790
662 663 663 663 664 664 665 665 666 666 667 668 669 670 671 671 672 673 673 673 673 672 671 670 669 668 667 663 660 656 652 648 645 643 643 645 647 648 648 646 646 647 647 647 651 658 662 664 665 670 674 678 682 688 694 701 709 718 726 731 736 743 750 755 755 754 751 750 752 758 766 771 775 777 779 779 780 782 783 783 785 787 789 789 788
663 664 665 666 666 667 667 667 667 668 668 669 669 670 671 671 672 672 673 673 673 672 671 670 668 666 664 660 656 651 647 644 641 638 637 637 640 643 643 638 634 634 637 640 643 647 653 657 660 663 668 673 678 684 690 697 705 714 722 727 733 741 749 754 756 755 750 746 748 755 762 768 771 774 775 775 777 778 779 780 782 784 786 786 785
665 666 667 669 670 670 670 670 669 670 670 670 670 670 671 672 672 672 672 672 672 672 670 669 666 663 660 657 654 649 644 641 637 633 630 630 631 634 635 630 626 625 627 630 634 637 642 648 653 659 665 669 674 680 687 694 703 711 715 721 730 740 749 755 758 756 750 744 745 752 759 764 768 770 771 772 774 776 777 778 780 782 783 784 783
669 670 671 672 672 671 671 672 672 671 671 671 671 671 671 672 672 672 672 672 671 671 670 668 666 663 659 656 653 648 644 641 634 626 620 620 623 625 627 626 624 621 620 621 624 628 634 641 647 654 662 668 674 681 688 695 703 708 711 717 728 739 747 753 757 756 750 744 744 751 757 761 765 767 768 770 772 774 775 775 777 779 781 782 781
671 672 673 673 673 673 673 673 673 673 672 672 672 672 672 672 672 671 671 671 670 670 669 667 666 665 662 659 655 651 647 644 636 624 616 615 615 616 620 622 622 619 616 617 620 624 631 639 646 652 661 670 677 683 690 697 702 705 710 719 729 738 744 750 754 754 748 743 745 750 756 759 762 764 766 768 770 771 772 773 775 777 778 779 779
672 673 674 673 673 674 674 674 674 674 674 673 673 673 673 673 672 671 671 670 669 669 668 668 668 667 665 662 658 654 652 650 642 631 622 617 614 614 615 618 620 619 616 615 619 626 632 638 644 651 660 670 678 684 692 698 701 706 712 721 730 736 742 747 750 749 746 743 745 750 754 757 759 762 764 766 767 768 769 770 773 775 776 776 776
673 674 675 675 674 674 674 675 675 675 675 675 674 674 673 673 672 671 670 670 669 668 668 668 668 668 666 664 661 657 655 653 649 640 629 620 618 620 620 618 619 622 619 613 615 625 633 639 646 655 662 670 678 685 692 697 701 706 714 722 729 735 740 744 745 744 743 744 746 749 752 755 757 760 762 763 764 765 767 768 770 773 774 774 774
676 677 677 677 676 675 675 675 675 674 675 674 674 674 674 673 672 672 671 670 670 669 669 669 669 668 667 665 662 659 656 653 650 646 635 624 620 626 629 625 624 631 631 624 621 628 636 643 651 659 665 671 679 687 693 698 702 708 715 722 728 733 737 739 740 740 741 743 746 749 751 753 756 758 759 761 762 763 764 766 768 770 772 772 772
679 679 679 679 678 677 677 676 676 675 675 675 675 675 674 673 672 672 671 671 671 670 670 670 670 669 668 665 663 661 659 656 653 649 642 632 627 630 634 633 634 641 647 644 641 643 647 652 657 662 666 673 682 689 695 699 704 710 716 721 726 730 733 734 736 738 740 742 745 747 750 752 754 756 757 758 759 761 762 764 766 768 769 770 770
680 680 680 680 679 679 679 678 677 677 677 676 676 675 674 672 671 671 670 670 671 671 671 672 671 671 669 667 665 664 663 662 660 657 650 642 636 636 639 641 643 650 658 660 657 655 657 660 664 668 673 679 687 693 698 702 706 711 716 720 724 727 729 731 733 736 738 741 744 746 749 751 753 754 755 756 757 758 760 762 764 766 767 767 767
681 681 681 681 681 681 681 680 679 679 678 677 675 674 673 673 672 671 670 670 670 670 671 672 672 672 671 670 669 668 667 667 666 664 660 654 648 646 647 649 652 657 663 665 663 662 663 666 670 675 681 686 692 696 700 704 707 711 715 718 721 724 727 729 732 734 737 739 742 745 747 749 751 752 753 753 755 756 758 760 762 763 765 765 765
684 684 684 683 683 683 682 682 682 680 679 678 676 675 674 674 673 673 672 671 670 670 670 670 671 672 672 672 672 671 671 671 670 669 667 664 660 657 656 657 659 661 664 665 666 667 669 673 677 682 686 691 695 699 702 705 708 712 715 718 721 723 726 728 731 733 736 738 741 743 745 747 749 750 750 751 752 754 756 758 759 761 762 763 763
686 687 687 686 686 685 685 685 684 683 682 681 680 679 678 677 675 675 674 673 672 671 670 670 670 671 671 672 672 672 672 673 673 672 671 669 667 666 665 664 665 666 667 669 670 672 674 678 682 686 689 693 697 700 703 706 709 712 715 718 721 723 726 728 730 732 735 737 739 742 744 745 747 748 748 750 751 752 754 756 758 759 761 761 761
689 690 689 689 688 688 687 687 687 686 685 684 683 683 682 681 679 678 676 675 674 673 672 671 671 671 672 672 672 673 673 673 673 674 674 673 672 671 670 670 670 671 672 673 675 677 679 682 685 688 691 694 697 700 703 706 710 712 715 718 721 722 724 727 729 731 734 736 738 741 742 743 745 746 746 748 750 751 753 755 756 758 759 759 759
693 693 692 692 691 690 690 690 690 688 687 686 685 685 684 683 682 682 680 678 676 675 674 673 673 673 674 674 674 673 674 674 674 675 675 675 675 675 675 675 676 676 677 678 679 681 683 685 687 690 693 695 698 701 704 706 709 712 715 718 720 721 723 726 728 730 733 735 738 739 741 742 743 744 745 747 749 751 752 754 755 756 757 758 758
697 697 696 695 695 694 694 694 693 692 691 689 687 686 685 685 684 684 683 682 680 678 677 676 675 675 676 676 676 676 675 675 675 676 676 676 677 677 678 679 680 680 681 682 683 684 686 687 689 691 694 696 699 702 704 707 710 713 715 717 719 721 723 725 727 729 732 735 737 738 740 741 742 743 744 746 748 750 751 753 754 755 756 756 756
701 701 700 700 699 699 698 697 695 694 693 692 690 689 688 687 687 687 686 685 684 682 679 678 677 676 677 677 677 677 677 678 677 677 676 677 678 679 679 680 681 682 683 684 685 687 688 690 691 693 695 697 700 703 705 708 710 712 714 716 718 720 722 725 727 729 732 734 736 737 738 739 741 742 743 745 747 749 750 752 753 754 754 754 755
Wind_Speed
33 34 34 33 33 33 33 33 33 32 30 28 27 26 26 26 25 24 24 24 24 24 24 24 24 23 23 22 22 22 22 21 20 20 20 20 20 18 17 18 19 19 17 16 17 17 17 17 16 15 14 14 12 12 12 12 12 12 11 11 11 11 12 11 9 8 8 7 7 7 6 6 6 6 7 7 7 7 7 8 9 9 8 8 9
34 33 33 33 34 34 34 33 33 33 31 29 29 28 27 27 27 26 25 25 25 25 26 26 25 25 24 23 23 23 22 22 21 21 21 21 21 19 19 19 20 20 18 17 18 17 17 18 17 16 16 16 14 13 12 12 13 13 13 12 12 12 12 12 11 9 9 8 7 7 7 7 7 6 7 8 7 7 8 8 8 8 8 8 8
34 33 33 34 35 35 34 33 33 33 32 31 30 30 28 28 28 28 27 26 26 27 27 26 26 26 25 24 24 24 23 23 22 22 22 23 22 21 20 21 21 21 19 19 19 18 17 18 18 18 17 17 16 15 13 13 13 13 13 13 13 12 12 13 12 10 10 8 7 8 7 7 7 6 7 8 8 8 8 8 8 8 9 9 9
33 33 33 34 34 34 34 33 33 33 33 32 31 31 30 29 29 29 29 28 27 27 28 27 26 26 26 25 25 24 24 24 23 23 23 23 23 22 21 22 22 21 20 20 20 20 19 19 19 19 18 18 18 17 16 15 14 14 14 13 13 13 13 13 13 12 11 10 8 7 7 7 7 6 7 8 8 9 9 9 9 9 8 9 9
33 34 34 34 34 34 34 34 34 34 34 33 32 32 31 30 29 30 30 30 28 27 27 28 27 26 26 26 25 25 25 25 25 25 24 24 24 23 22 22 22 22 22 21 21 21 20 20 20 20 20 19 19 18 18 17 16 15 14 14 14 14 13 13 13 13 12 11 10 8 7 7 7 7 7 8 8 9 9 9 9 9 9 9 10
33 33 33 33 34 35 35 35 35 35 35 33 33 33 33 32 30 30 30 31 30 28 27 27 27 27 26 25 25 25 25 25 26 26 25 24 24 24 23 22 23 23 22 22 22 22 21 21 20 20 21 21 20 19 19 18 18 17 16 15 14 14 14 14 13 13 13 12 11 10 9 9 8 8 8 9 9 9 9 9 9 9 9 9 10
33 33 33 32 34 35 36 36 36 36 35 34 33 33 34 33 32 31 30 30 31 30 28 27 27 27 26 26 26 26 26 26 26 27 27 25 24 24 23 22 22 22 23 23 23 23 22 22 21 21 22 23 22 20 19 19 19 18 17 16 16 15 14 14 14 14 14 13 13 12 11 10 9 9 9 9 10 10 10 9 9 8 8 8 9
33 33 32 32 33 35 35 35 35 34 34 34 34 34 33 33 33 31 30 30 30 31 30 29 27 26 26 27 27 26 26 27 27 27 27 26 25 24 24 23 22 22 22 23 23 23 23 22 22 22 23 24 23 21 20 20 19 18 18 17 17 16 15 14 14 15 14 14 14 14 12 11 10 10 9 9 11 11 10 10 10 9 8 8 8
33 33 32 32 33 33 33 33 32 33 33 33 34 34 33 32 32 31 30 29 29 30 30 29 28 26 27 27 28 27 27 28 28 28 28 27 25 24 24 24 23 22 22 23 23 23 23 23 22 22 24 25 26 25 22 21 20 18 18 18 18 17 16 15 14 15 15 14 15 14 12 12 11 11 11 11 12 11 9 9 9 9 8 9 9
32 32 32 32 31 31 31 31 31 31 33 33 34 34 33 31 31 31 31 29 28 29 29 29 28 27 27 27 28 28 28 28 30 32 31 28 26 24 24 23 24 23 22 22 23 23 23 23 22 23 25 27 28 27 26 25 24 20 18 19 20 18 17 16 15 16 15 14 15 14 13 12 12 12 12 12 11 10 8 8 9 8 8 9 10
31 32 33 31 29 29 30 31 30 31 32 33 33 33 33 31 30 30 30 29 28 28 28 29 28 28 27 27 28 28 28 30 33 36 37 34 29 24 23 23 23 23 23 23 22 23 23 23 22 23 26 28 28 28 28 27 28 25 21 21 21 21 19 17 16 17 17 15 15 15 13 13 11 11 11 11 10 10 9 8 8 8 9 10 10
30 31 31 29 28 29 30 30 29 30 31 32 31 31 31 30 29 29 29 29 29 28 28 29 29 28 27 27 28 29 29 31 35 37 38 39 36 29 23 22 23 23 24 24 23 22 22 23 22 21 23 27 27 27 28 29 29 28 26 25 25 23 21 19 17 17 17 16 16 15 14 12 11 10 11 10 10 9 9 8 8 9 10 10 10
29 28 28 27 27 28 28 28 29 29 30 30 29 29 30 30 30 29 28 28 28 28 28 28 29 29 29 28 28 29 28 31 36 39 39 40 40 36 28 23 22 23 23 24 24 23 22 22 21 20 21 25 26 24 25 28 29 27 26 27 28 27 25 23 21 20 18 16 16 17 15 12 11 11 10 9 8 9 9 8 8 8 9 10 10
27 25 26 26 26 27 27 28 28 28 28 28 27 28 30 31 30 28 27 28 28 28 28 28 29 29 30 29 28 28 28 30 35 39 40 40 41 41 35 26 23 23 23 24 24 24 24 23 22 21 20 23 26 23 21 23 26 27 28 28 29 29 27 25 23 24 22 18 16 17 16 13 11 10 9 9 9 8 8 7 7 8 9 9 8
27 25 26 28 28 27 29 29 27 27 26 27 27 28 28 29 29 29 28 28 28 29 29 29 29 29 29 29 28 28 29 32 35 37 40 40 40 41 39 31 26 25 24 24 25 25 25 25 24 23 21 23 27 26 23 21 22 24 27 27 26 24 24 24 22 23 25 22 18 17 16 13 11 9 9 9 9 7 6 6 5 5 6 7 8
27 27 27 30 30 30 30 30 28 27 27 27 28 29 29 30 30 30 29 28 28 29 29 30 30 30 31 31 30 30 30 33 37 38 38 39 39 41 40 34 29 28 25 25 26 27 27 26 25 24 22 23 27 29 26 23 21 21 23 22 22 20 20 21 21 21 22 22 21 19 17 14 13 12 11 10 8 7 6 6 5 5 6 8 9
28 28 28 30 31 30 30 30 29 28 28 29 30 31 31 32 31 30 30 29 28 29 30 30 30 31 33 33 33 33 32 33 37 40 40 39 39 42 41 34 30 29 27 26 26 28 29 28 26 24 23 23 26 29 28 25 22 21 21 20 19 20 19 20 21 23 22 22 22 22 18 15 14 13 12 12 11 9 8 8 8 9 9 8 8
28 29 28 27 28 28 28 28 28 29 29 30 32 32 32 31 30 29 29 29 29 29 28 29 29 31 33 33 34 34 32 32 36 39 41 40 41 43 40 33 29 29 28 28 28 28 30 30 30 27 24 24 27 28 29 27 24 22 21 20 20 21 20 18 19 22 23 22 22 21 18 16 14 13 13 13 12 11 9 8 8 8 8 7 7
27 26 24 23 23 25 27 28 29 29 31 32 32 31 30 28 27 27 28 28 28 27 26 27 29 30 30 31 32 32 30 30 33 38 41 41 43 43 38 31 30 29 29 30 30 30 30 30 32 32 27 25 28 29 29 29 26 23 21 20 21 23 22 20 19 20 21 21 19 18 17 16 15 14 14 13 13 12 10 8 8 7 7 8 6
21 21 21 21 23 26 28 29 30 30 31 31 29 27 27 26 26 27 27 27 26 26 26 26 27 27 27 28 30 31 32 33 33 36 40 42 44 43 37 32 32 32 31 31 29 30 31 31 32 35 32 28 29 29 30 30 28 25 22 22 24 25 23 21 20 20 20 19 17 16 15 15 14 13 13 13 13 12 11 9 9 8 8 8 6
17 19 21 22 23 27 28 27 28 29 27 25 24 23 24 24 25 25 25 25 25 25 26 25 26 27 27 27 29 31 34 36 36 37 39 43 46 45 39 34 34 32 31 31 30 30 32 33 32 33 34 33 32 30 29 30 30 27 24 24 26 26 23 22 21 22 21 20 18 16 14 14 14 13 13 13 13 12 12 11 10 10 9 7 6
17 19 22 23 23 24 25 24 24 23 21 21 21 21 22 22 22 23 23 23 24 25 25 25 27 28 27 28 31 32 33 36 38 39 39 41 45 48 43 37 34 32 29 29 31 31 31 34 34 33 33 35 36 34 31 28 30 30 26 24 26 26 25 23 23 23 22 20 19 17 15 15 15 14 14 13 12 12 12 12 11 10 8 6 4
16 18 20 22 21 21 22 22 21 21 21 22 21 21 22 22 22 22 22 22 24 25 26 27 27 27 28 29 31 32 33 35 38 41 41 41 44 49 49 43 37 34 31 29 31 32 31 33 36 35 34 34 37 38 34 30 31 31 27 26 27 27 26 25 23 24 22 20 20 18 17 16 16 15 15 13 13 13 13 12 11 10 8 6 5
13 15 17 18 19 18 19 20 21 21 21 22 21 22 22 22 22 22 22 23 24 25 26 27 26 26 27 29 30 31 32 33 36 41 44 45 45 49 53 50 44 38 33 29 30 32 33 35 37 36 35 34 37 39 36 31 32 32 30 29 29 28 28 26 24 24 23 21 21 20 18 17 16 16 15 14 14 14 13 11 11 10 8 7 7
11 12 14 16 17 17 17 19 20 21 21 21 21 22 22 22 22 22 21 23 25 25 25 26 25 25 26 28 29 30 31 31 34 39 43 47 48 49 51 52 49 43 36 31 30 32 34 38 39 38 37 36 38 39 37 34 33 34 34 32 30 31 30 27 25 25 24 22 22 21 18 17 16 16 15 14 14 14 13 11 10 9 9 9 8
10 11 12 13 15 16 16 17 19 20 21 21 21 21 21 21 21 21 22 25 25 24 24 25 24 24 25 27 28 29 30 29 31 34 39 44 48 49 49 51 52 49 44 37 31 30 34 37 39 38 38 38 39 41 40 36 34 36 36 33 32 33 32 27 25 26 24 23 23 20 18 17 16 16 16 16 15 15 13 12 10 10 10 10 9
9 10 11 12 13 14 15 16 16 18 19 19 19 19 19 20 20 20 22 24 23 22 23 23 23 23 25 27 28 28 29 29 29 32 36 41 45 48 49 51 53 52 49 40 32 29 32 35 37 36 36 36 38 40 40 37 36 38 38 34 31 33 31 28 27 27 25 23 22 19 17 17 16 16 17 16 15 14 13 12 11 10 11 11 9
7 8 9 9 9 11 13 13 13 14 15 17 17 17 17 18 20 21 22 23 22 21 22 24 24 24 25 26 26 26 28 31 32 32 32 35 40 45 48 51 53 52 48 41 33 30 32 34 34 34 34 36 37 36 35 36 37 38 37 33 31 31 30 28 27 25 22 22 21 18 17 18 18 17 17 16 15 14 13 13 11 11 11 11 9
7 7 7 7 7 7 8 10 10 11 12 13 14 16 16 15 15 15 17 19 19 18 18 19 20 20 21 22 22 22 24 30 33 34 32 31 35 41 48 52 52 50 48 42 33 29 33 36 35 35 36 36 34 31 28 29 30 30 31 32 30 29 30 29 27 24 22 22 21 19 19 19 18 17 17 15 15 14 14 13 12 11 12 11 9
9 8 7 6 6 5 5 6 7 8 10 11 11 11 12 11 10 10 10 11 12 13 14 15 17 18 20 22 23 23 26 29 31 32 35 38 39 41 46 51 51 50 51 48 39 36 40 40 38 38 38 35 32 29 27 27 27 28 31 33 31 30 31 29 26 25 24 24 22 21 21 19 18 18 17 16 15 15 14 13 12 12 12 12 10
9 9 8 7 6 6 5 5 5 5 6 8 5 3 4 7 9 11 12 12 13 14 15 18 22 24 27 31 34 36 38 40 38 36 36 40 44 46 46 49 51 53 55 51 43 40 44 43 40 40 38 34 33 31 27 26 29 31 31 30 30 31 32 28 26 26 25 24 23 22 21 19 19 18 17 16 15 15 14 13 13 13 13 13 10
8 8 8 8 7 7 7 6 5 5 4 4 3 2 3 5 3 2 3 5 7 9 11 13 17 21 25 29 34 39 43 47 50 49 45 43 45 49 50 50 52 56 58 55 45 41 42 42 39 39 38 35 36 36 32 29 31 33 33 30 29 31 30 27 27 28 25 23 23 21 20 19 18 17 17 16 15 15 15 13 13 14 14 12 10
7 7 7 7 7 7 7 7 6 5 5 4 4 4 3 2 2 3 3 5 7 8 10 11 12 15 17 21 26 32 37 42 46 50 52 49 47 49 52 54 56 58 60 55 45 39 42 43 42 42 42 41 41 41 39 36 33 33 35 33 28 27 28 28 28 28 26 24 23 21 19 19 18 16 16 16 15 15 15 14 14 15 14 12 10
9 8 7 7 7 7 7 8 8 8 7 6 6 6 5 4 4 3 4 6 8 10 12 14 14 15 18 22 26 29 34 38 41 45 49 49 48 51 54 56 57 60 63 57 44 37 39 41 41 42 42 42 43 42 41 39 36 33 34 33 28 25 28 30 29 28 27 26 24 21 19 19 18 17 16 16 15 16 16 15 15 15 14 12 9
11 10 9 7 7 7 7 8 8 8 8 7 6 5 5 4 3 3 3 5 7 8 10 12 14 16 20 24 27 29 31 33 35 37 39 39 42 49 52 51 50 54 58 54 45 41 39 38 40 42 41 40 41 41 40 39 36 33 33 32 28 25 27 31 30 29 28 27 24 21 20 19 18 17 16 16 16 16 16 16 15 15 14 12 9
12 12 10 9 8 7 7 7 7 6 5 5 4 4 4 3 2 1 2 3 6 8 9 11 14 18 21 24 26 28 28 26 25 27 29 30 33 38 45 47 46 49 49 43 39 42 43 41 40 41 41 42 42 40 40 39 36 35 34 30 25 23 26 30 30 27 27 26 23 21 19 18 18 17 17 17 16 16 16 15 14 14 13 12 10
12 11 10 8 7 7 7 6 5 4 3 3 2 3 3 2 2 2 2 3 6 8 9 11 16 18 19 22 25 28 26 23 21 21 22 24 25 31 44 47 43 43 43 40 39 41 42 41 41 39 38 40 41 39 38 37 36 36 35 31 26 26 28 29 28 26 25 24 22 20 19 18 18 17 16 16 16 15 15 14 13 13 13 11 10
13 11 9 8 6 6 6 6 5 3 2 2 2 2 2 2 2 2 2 4 5 7 8 11 14 16 18 22 25 26 24 19 15 14 16 16 17 24 39 44 40 39 40 40 42 44 40 39 41 41 38 38 39 37 36 35 35 36 35 31 28 29 29 27 27 26 24 21 20 19 18 17 17 17 16 15 15 15 14 13 13 13 13 12 11
12 12 11 10 9 8 7 6 5 4 4 3 3 3 2 2 2 2 3 4 6 7 9 10 12 14 17 21 23 23 21 17 11 13 14 10 9 17 29 35 33 34 38 37 38 41 40 38 39 40 39 38 37 36 34 33 34 35 33 28 27 29 29 27 26 25 22 19 18 18 18 17 17 17 16 15 15 14 13 13 13 14 13 13 12
10 11 12 11 9 7 7 7 6 6 6 5 4 3 3 3 3 3 3 4 5 7 8 9 10 12 14 18 20 19 17 13 11 15 18 15 8 4 17 22 21 23 32 38 37 36 38 39 40 41 41 40 37 36 34 33 33 34 31 29 29 30 30 28 26 23 21 18 18 18 18 17 16 16 15 15 14 13 13 13 13 13 13 12 11
10 10 11 10 8 6 6 7 7 6 5 5 4 4 4 3 3 2 3 3 4 6 6 7 8 9 11 15 17 15 12 11 12 15 20 26 27 22 13 9 7 0 13 32 42 41 38 39 40 40 41 40 37 36 35 34 34 34 33 32 31 31 29 27 25 22 20 18 18 18 17 17 16 16 15 14 13 12 12 12 13 13 13 12 11
10 9 9 8 8 7 7 7 7 6 5 5 5 5 5 4 3 2 2 2 3 4 5 5 6 7 10 14 16 13 11 12 14 16 22 30 33 32 31 32 31 23 16 24 39 43 40 40 39 39 39 38 35 34 33 32 32 34 34 33 31 29 27 24 23 21 20 18 18 18 17 17 16 15 14 14 13 12 12 12 13 13 13 13 12
9 9 8 8 7 7 7 7 7 6 6 6 6 5 5 5 4 3 2 1 2 4 3 4 5 7 9 12 15 14 13 13 14 16 21 28 32 31 31 33 33 27 21 23 31 37 38 37 37 37 38 37 35 34 34 33 33 34 33 31 29 27 24 22 22 21 19 18 18 17 17 16 16 15 14 14 13 12 12 13 13 13 13 13 12
8 8 8 8 7 7 7 6 6 6 6 5 4 4 4 5 5 4 3 2 1 2 3 3 5 7 7 9 12 14 13 14 15 15 17 23 28 28 27 28 28 26 22 22 27 32 34 34 33 33 33 33 33 33 33 33 33 33 32 31 29 26 23 22 22 21 19 18 17 17 16 16 15 15 14 14 13 12 13 13 14 14 14 13 12
9 8 8 8 8 8 8 7 7 6 6 6 5 5 5 5 5 5 4 3 3 1 1 2 3 6 7 8 10 11 11 11 13 15 14 16 20 23 25 27 28 27 26 25 26 29 31 31 31 31 30 30 30 30 29 30 31 32 32 31 29 26 23 21 21 20 18 17 17 16 16 16 15 14 14 13 13 13 13 13 14 15 14 13 13
11 11 10 10 10 10 10 10 9 9 8 9 9 8 7 6 6 6 6 5 5 4 3 2 2 2 4 5 5 7 8 8 9 10 10 10 12 16 21 25 26 27 27 27 28 29 29 30 30 29 28 28 28 27 27 28 29 29 29 27 26 23 21 20 19 18 17 17 16 15 15 15 15 14 13 13 12 13 13 13 14 15 15 14 13
13 13 12 12 11 11 11 11 12 12 11 12 12 11 11 10 9 8 7 6 6 6 5 4 4 2 1 1 2 3 3 4 5 6 7 7 9 12 16 20 22 23 24 25 26 27 28 28 28 27 26 27 26 26 27 28 27 26 25 23 22 21 20 19 18 18 17 16 15 14 14 14 14 13 13 13 12 12 12 13 14 14 14 14 12
14 13 13 13 12 12 12 12 12 12 12 12 12 12 12 12 12 11 10 8 7 6 5 5 5 4 2 0 0 1 1 1 2 3 5 6 8 11 14 16 18 19 21 21 22 23 23 23 24 24 26 27 27 27 28 26 24 22 21 21 21 21 21 20 18 16 15 15 14 13 12 13 12 12 12 12 12 12 12 13 14 14 14 13 12
15 14 14 14 14 13 13 13 13 12 12 12 12 12 12 13 13 14 14 13 10 8 6 4 4 4 3 2 1 1 1 1 2 2 3 5 8 11 13 15 16 16 16 17 18 18 18 19 20 22 23 25 26 28 28 26 23 21 21 20 21 23 23 21 18 16 15 14 12 12 11 11 11 11 10 11 12 13 13 13 14 13 13 13 12
17 17 16 15 14 14 13 13 13 13 14 14 14 14 14 14 14 14 14 14 13 11 9 7 5 4 3 3 1 0 0 1 2 3 3 5 7 9 11 13 14 14 14 14 15 15 14 15 17 19 21 24 25 27 27 26 24 21 20 21 22 23 23 21 19 17 15 12 10 10 10 10 10 10 10 10 12 13 13 13 13 13 12 12 12
19 19 18 17 16 15 14 14 14 14 14 15 15 15 15 15 15 15 15 14 14 13 11 9 8 6 4 3 2 1 2 3 2 2 3 4 6 8 10 11 11 12 12 13 14 13 13 13 14 17 19 22 23 24 24 24 22 20 20 22 23 23 22 21 18 16 15 12 9 8 9 9 9 10 10 11 11 12 13 12 12 12 12 12 12
Wind_Direction
195 196 198 199 199 201 203 205 206 209 211 209 209 210 210 210 211 211 210 208 208 208 209 210 210 209 210 211 211 211 211 210 208 205 206 210 212 215 216 214 216 216 210 207 209 209 207 207 209 211 212 213 213 211 209 208 208 210 210 209 211 213 213 220 234 240 232 228 236 243 234 225 228 225 227 232 233 238 234 225 232 242 243 239 243
197 196 196 198 200 201 202 203 204 207 209 209 210 210 210 210 210 209 209 209 209 209 210 211 211 209 210 209 208 208 208 209 209 205 205 207 208 210 213 212 214 215 209 207 209 209 207 208 209 211 213 216 215 213 210 208 209 210 211 212 213 213 211 215 229 241 240 227 228 237 227 225 234 227 226 236 230 226 230 229 228 230 235 242 248
197 196 196 199 200 201 202 203 204 206 208 209 210 210 210 210 209 208 209 210 210 210 212 212 211 209 209 209 206 205 205 206 210 209 206 205 206 208 208 208 210 210 209 208 209 209 208 209 210 210 212 215 216 215 214 212 212 213 214 214 218 218 214 217 226 238 248 241 229 232 228 225 235 236 231 234 233 231 233 234 232 233 238 243 251
196 195 197 199 200 200 202 203 204 206 207 209 210 210 210 210 209 209 210 211 211 211 212 213 211 209 208 208 205 204 204 204 209 212 209 207 208 208 206 204 206 207 208 209 210 210 209 210 211 211 211 213 214 215 215 213 212 214 215 215 218 222 220 221 226 233 246 249 240 236 238 235 240 243 235 232 235 235 237 241 239 239 244 248 255
195 196 198 200 200 200 202 203 205 206 207 209 209 210 211 211 210 209 210 212 212 211 211 212 211 209 208 208 206 205 205 205 208 211 212 210 211 211 208 205 206 207 209 210 210 210 211 212 212 210 210 211 213 214 214 213 211 212 215 216 216 220 222 223 226 229 236 245 246 240 238 239 243 243 241 242 241 236 237 243 243 243 248 255 263
196 196 197 199 200 201 202 203 206 207 207 209 209 210 212 212 211 210 210 211 211 211 211 211 210 210 209 208 207 206 207 207 208 210 212 212 213 214 212 209 208 209 210 211 211 211 212 214 213 211 210 210 212 214 212 210 210 212 214 215 214 216 221 223 224 226 230 237 244 243 238 239 243 245 246 247 248 247 244 245 246 248 250 256 269
196 197 198 199 200 201 202 203 205 206 207 208 209 210 211 212 212 210 210 210 211 211 211 211 210 210 209 209 209 208 209 209 209 211 213 213 213 215 214 212 210 210 211 212 213 213 214 215 215 213 211 212 213 213 210 207 208 212 215 214 214 214 218 223 223 225 229 234 239 241 240 239 241 244 246 245 246 249 250 252 255 252 246 253 269
197 198 198 199 200 201 202 202 203 204 205 206 207 209 210 211 210 210 209 209 210 211 211 210 209 208 208 210 210 209 210 211 211 211 213 214 214 214 215 213 211 210 211 213 214 215 216 217 218 217 214 214 214 213 210 206 206 211 214 212 212 214 217 220 222 224 228 233 237 238 238 239 239 240 239 236 239 243 243 248 258 260 257 258 262
197 198 199 200 201 200 200 201 202 202 202 203 205 207 209 209 209 209 209 209 210 211 211 210 208 207 207 209 210 210 211 212 213 212 212 212 213 214 214 214 214 212 210 212 215 215 216 218 220 219 217 217 218 217 212 207 206 209 211 210 209 211 216 219 220 224 228 231 235 235 234 235 233 233 233 230 234 241 238 237 250 260 265 268 267
198 198 200 202 200 197 196 198 198 199 200 201 202 205 207 208 208 208 208 208 209 210 210 210 209 208 207 207 209 211 212 214 216 218 217 214 211 213 215 214 214 214 211 211 214 215 216 219 220 221 221 222 224 222 217 212 213 213 209 208 208 207 210 215 220 227 228 228 231 232 233 235 231 232 236 235 234 234 226 229 243 254 262 271 275
198 199 201 201 197 193 193 195 195 196 198 200 200 202 205 206 207 207 207 208 209 209 209 209 210 210 208 208 210 212 213 216 219 221 222 220 214 211 214 214 213 213 213 212 213 214 215 217 219 221 222 224 226 227 223 219 221 222 217 213 213 208 206 209 218 227 228 226 230 232 232 234 233 234 238 238 232 226 226 232 242 256 265 272 280
200 201 201 198 192 191 191 192 193 194 196 198 199 200 202 205 206 205 206 207 207 208 209 209 210 211 211 210 211 213 215 218 221 223 224 224 220 215 214 215 214 213 214 214 214 214 214 215 216 216 219 222 223 225 227 225 225 227 224 220 219 215 212 211 215 224 228 227 228 231 232 232 232 233 237 239 234 226 228 235 240 257 269 274 284
201 200 199 194 191 190 190 190 192 194 195 196 198 198 200 204 206 206 206 207 207 208 208 209 210 211 212 212 213 215 216 219 223 224 225 226 225 221 217 215 215 215 215 216 215 214 213 213 212 210 216 223 221 217 221 226 226 227 226 224 223 223 223 223 222 223 226 229 230 230 231 229 230 232 234 235 232 227 232 241 245 255 265 274 287
200 198 196 194 192 190 191 193 194 194 194 193 196 199 202 205 207 208 208 208 209 209 209 210 211 212 213 214 215 217 218 220 224 226 226 226 226 224 220 217 218 219 219 220 219 217 214 211 211 209 210 220 222 212 208 217 222 223 222 222 223 225 227 231 231 225 223 229 234 231 228 227 228 230 222 212 216 226 235 243 250 257 268 280 287
201 198 195 195 194 192 194 196 194 194 194 193 196 201 204 206 208 209 211 211 211 212 212 211 211 212 215 217 218 221 222 222 223 226 226 226 227 225 221 217 219 221 220 222 225 224 219 213 212 211 207 214 222 217 204 203 210 213 214 216 218 220 225 230 230 223 220 224 228 228 227 223 216 210 204 200 207 217 223 231 245 264 277 281 281
201 200 197 195 194 194 194 194 193 194 194 194 198 203 205 208 208 209 211 213 214 215 215 215 215 215 218 220 222 226 227 225 224 225 226 226 225 223 219 217 218 219 219 221 225 228 227 220 215 213 207 210 222 223 211 200 201 205 206 208 210 214 221 225 224 217 214 216 219 222 222 215 205 202 201 199 198 201 212 220 221 232 248 259 272
200 201 199 197 195 193 192 192 192 194 194 196 201 205 207 209 209 207 209 212 213 214 215 217 218 218 218 219 221 225 227 226 224 225 225 224 221 219 217 215 216 219 221 221 223 227 229 225 220 217 210 208 220 226 216 204 203 207 205 202 205 211 216 218 215 212 209 211 216 219 218 212 211 213 212 211 207 202 209 219 226 243 255 259 268
199 200 199 197 194 190 189 190 191 192 195 198 202 205 206 208 207 206 208 211 213 214 214 215 217 217 217 218 219 223 226 227 226 225 224 223 219 215 213 211 212 217 221 222 223 225 228 227 224 221 215 211 217 223 217 206 203 205 205 202 206 211 209 201 200 205 207 208 214 217 216 215 217 214 213 217 216 208 206 218 234 251 257 253 250
201 199 198 194 188 185 187 191 193 194 197 201 204 205 205 205 205 205 209 212 215 216 216 217 219 219 220 222 223 225 229 231 229 226 224 223 219 213 208 206 209 213 217 219 220 222 225 226 225 223 219 214 216 221 217 208 203 202 203 204 206 210 205 193 190 197 198 199 205 209 209 211 211 209 211 214 212 206 204 215 230 235 235 239 236
202 198 194 189 186 188 192 195 196 199 201 203 204 204 203 203 204 204 208 213 216 218 218 220 222 222 221 223 225 227 230 233 234 229 226 225 220 212 205 204 206 208 211 213 214 217 220 222 223 224 221 215 217 220 217 211 204 200 199 203 205 206 200 192 193 196 192 190 195 196 195 198 198 198 203 204 204 206 205 210 218 216 217 228 227
198 193 190 189 191 195 199 200 201 203 204 202 202 204 204 205 206 206 210 213 215 218 219 221 226 227 224 224 227 229 230 232 235 233 229 226 222 215 207 206 206 203 205 209 210 213 215 216 218 222 219 215 216 218 216 212 207 200 197 201 205 204 197 191 192 195 193 190 191 186 182 189 193 193 194 193 197 203 201 202 206 205 207 221 228
192 188 189 192 196 198 200 201 202 204 205 202 202 204 207 209 210 211 214 216 218 221 223 225 230 233 233 232 232 233 232 231 233 233 231 228 225 219 214 212 208 202 201 205 207 210 212 212 214 217 217 215 214 215 215 211 207 203 199 199 202 202 198 192 188 190 191 189 190 189 185 189 197 198 195 192 191 192 192 194 197 198 206 217 221
192 189 192 195 197 198 198 199 200 203 205 204 204 206 210 212 214 214 216 221 226 229 229 229 231 234 236 236 235 235 234 232 232 233 232 230 228 225 220 217 211 204 203 204 206 207 208 209 210 212 214 213 211 213 212 207 204 203 199 196 199 198 196 191 185 187 190 189 192 194 190 193 199 198 194 190 184 183 186 189 190 193 206 214 210
192 193 195 196 196 196 197 199 202 205 206 205 204 209 211 212 214 214 215 220 227 231 231 230 230 232 235 236 236 235 235 233 233 233 231 231 230 228 224 220 214 209 208 208 207 205 205 205 205 206 210 211 209 208 207 204 203 200 194 194 197 193 190 189 185 186 189 191 195 198 194 195 198 194 189 185 177 176 181 185 188 194 207 215 216
191 196 198 196 196 196 197 201 204 204 204 203 204 207 209 210 212 213 214 220 225 229 232 231 230 231 235 237 237 237 236 234 234 234 234 232 231 229 226 222 217 213 214 214 212 208 206 204 203 203 206 207 204 202 201 201 201 196 190 191 193 189 188 188 185 187 191 193 196 199 195 194 195 190 182 174 168 172 180 186 192 200 211 217 219
192 197 198 196 197 198 199 202 205 205 205 206 207 208 210 211 212 212 216 222 225 228 232 234 232 232 235 238 239 239 238 236 234 234 235 233 230 229 227 223 219 216 217 218 220 216 210 205 202 202 204 202 198 196 196 196 195 192 189 189 190 189 190 189 186 189 194 195 198 199 194 191 190 181 172 167 167 174 183 190 194 204 216 219 219
192 195 198 199 200 201 203 205 207 207 207 209 211 213 213 215 216 216 219 224 225 227 232 234 234 234 237 240 241 242 241 238 235 233 231 229 226 225 224 221 218 216 215 216 221 221 211 204 204 204 203 199 194 192 192 191 189 188 188 188 189 190 192 192 190 190 192 195 198 197 189 185 182 173 169 170 174 180 188 193 199 214 224 222 220
182 183 188 194 198 201 205 208 210 210 209 211 216 219 219 221 224 226 228 230 230 230 232 233 235 239 242 244 246 245 244 242 239 235 230 224 219 219 219 217 215 213 211 211 216 216 204 198 200 201 196 190 187 186 186 184 183 185 186 187 189 190 191 193 191 187 187 192 195 190 181 179 178 176 175 177 181 186 193 196 204 221 228 222 220
139 149 163 175 180 185 194 200 206 212 214 215 220 225 228 232 236 236 235 235 237 241 245 247 247 250 253 254 253 249 247 247 246 242 237 228 220 217 218 216 212 210 210 209 209 203 192 187 190 190 185 180 178 177 177 177 178 181 184 186 187 188 190 192 188 182 183 188 189 182 176 177 180 181 181 182 186 192 198 198 201 213 221 222 229
108 120 134 149 158 158 167 185 199 212 219 220 221 225 229 237 253 265 259 248 246 253 262 267 269 274 279 277 269 261 257 257 257 252 244 237 230 224 221 217 211 209 208 206 203 194 185 183 184 183 179 175 173 172 171 171 172 177 181 183 184 185 188 190 186 182 183 184 181 174 174 180 183 184 185 187 190 196 200 200 200 208 218 225 234
108 112 114 117 127 134 138 153 170 189 213 224 228 233 236 241 259 276 279 274 271 273 276 278 277 278 280 278 274 269 265 263 264 262 255 244 235 228 223 218 213 210 207 203 198 192 184 180 179 179 178 175 172 170 168 168 171 175 177 178 180 184 188 188 185 182 180 178 174 172 176 183 186 188 189 190 194 199 199 197 202 212 220 228 234
106 108 110 111 115 120 123 129 140 149 167 187 182 185 232 236 240 284 297 294 295 295 296 294 287 280 278 277 275 272 269 265 264 263 261 253 240 230 224 218 214 211 206 200 196 191 184 178 176 177 177 174 172 170 168 169 173 174 174 173 175 182 188 188 184 180 178 174 172 172 179 185 189 192 193 192 198 203 196 193 207 218 222 227 230
97 102 105 104 103 107 113 119 127 133 136 141 146 154 173 172 100 71 40 14 359 350 344 336 322 308 300 296 290 283 277 273 269 265 263 259 247 235 227 219 214 210 204 199 196 191 184 179 178 180 178 174 173 171 169 170 172 174 175 175 175 180 186 185 182 180 176 172 170 172 180 188 192 195 195 195 205 213 207 205 217 224 224 225 223
87 89 88 91 92 92 99 107 110 111 113 113 114 114 104 82 65 45 14 358 353 349 344 338 331 324 320 316 310 300 290 284 280 277 273 266 254 241 229 219 212 209 204 200 198 193 186 182 181 181 178 174 172 170 168 168 169 171 175 178 176 178 185 187 184 180 174 168 169 173 181 190 194 196 199 204 211 218 217 216 222 227 226 223 219
86 85 81 84 88 85 88 97 100 100 102 101 101 103 100 90 74 47 16 358 345 334 328 326 323 319 321 323 321 314 302 292 288 287 284 278 266 248 228 212 205 204 204 201 196 190 187 185 181 179 177 173 170 168 167 167 168 169 173 176 173 174 182 186 185 181 173 166 167 172 180 191 197 197 203 212 215 216 219 220 223 225 223 219 216
86 89 86 83 83 82 81 87 90 91 94 98 101 101 96 94 84 42 7 355 344 328 319 323 323 320 322 327 328 324 316 308 306 304 298 290 277 251 225 208 200 199 200 200 194 186 184 185 181 177 174 170 167 167 165 164 166 169 170 169 167 171 180 184 185 182 173 165 165 171 180 191 197 199 208 218 219 217 218 218 218 219 218 216 212
71 80 84 80 82 89 88 77 70 77 86 88 97 102 97 92 65 21 8 2 349 334 328 331 330 327 329 330 329 329 326 319 323 328 319 304 285 252 228 217 209 200 196 195 188 180 179 178 175 171 168 164 161 161 160 161 165 168 166 164 168 176 182 186 187 184 173 163 163 171 180 189 196 202 212 218 214 211 210 209 211 216 214 207 202
68 70 67 56 56 73 80 68 56 57 65 62 68 80 81 80 67 29 8 358 350 342 342 344 340 338 339 335 331 332 330 320 326 352 350 324 291 250 232 226 217 204 196 192 182 175 172 170 165 161 159 157 155 155 157 160 162 162 159 159 167 177 181 184 188 185 173 161 161 171 181 190 197 202 206 206 202 202 205 205 210 213 206 198 200
74 67 58 50 49 51 50 45 37 28 22 26 38 48 50 52 49 33 16 12 11 7 2 358 355 351 347 340 335 335 333 323 333 13 14 339 278 233 229 234 229 209 194 184 174 167 162 157 153 151 151 151 152 154 156 157 156 154 152 154 163 172 177 182 185 182 172 163 164 172 181 188 191 194 198 199 199 201 203 204 210 212 206 200 202
66 61 54 49 50 51 46 38 31 25 17 11 14 27 37 35 26 26 28 22 22 24 19 11 5 360 353 347 344 342 339 335 357 33 42 36 21 230 220 230 236 218 191 172 160 154 150 145 143 145 148 151 152 152 151 152 152 152 153 157 164 171 177 181 182 178 171 168 169 174 180 183 183 187 194 199 201 201 200 202 209 212 211 208 201
57 58 53 43 37 44 52 45 35 27 19 11 10 16 24 23 10 17 32 27 24 30 30 23 15 3 355 357 2 5 9 11 17 38 57 61 53 45 52 79 70 6 175 153 142 137 137 137 139 143 147 148 149 148 149 152 154 157 161 166 170 173 176 178 178 174 171 171 172 174 177 180 182 187 193 196 196 196 197 201 206 208 211 213 207
54 54 53 46 39 44 51 45 35 27 21 21 23 20 17 17 13 8 18 24 27 33 31 22 11 354 350 4 17 27 36 39 36 41 56 66 66 59 56 66 70 61 67 107 121 126 131 134 137 140 141 141 144 149 153 156 158 162 167 172 174 173 173 173 172 171 171 172 173 175 177 178 182 188 191 191 191 194 197 202 206 207 209 211 207
58 51 47 48 45 43 39 32 29 28 23 20 24 22 13 9 8 3 357 9 35 44 38 15 358 344 347 8 23 28 27 30 39 52 64 72 75 73 72 78 85 86 83 96 113 124 130 132 135 138 141 144 149 155 160 163 165 168 171 173 173 171 170 169 169 170 171 171 172 174 177 178 182 188 190 189 191 196 199 203 207 209 210 209 205
53 49 45 44 42 39 36 28 23 22 14 4 7 13 6 0 2 0 350 336 12 49 50 17 358 350 349 4 18 22 20 20 26 42 69 83 87 89 94 101 107 113 118 119 123 128 130 132 134 138 143 150 157 161 164 168 170 171 172 171 169 167 167 168 168 169 170 171 172 174 177 180 184 189 191 190 192 198 202 204 208 211 212 211 208
44 40 39 39 34 31 29 22 12 7 358 350 351 354 350 351 357 357 348 334 326 356 47 18 356 357 0 7 15 17 18 22 28 34 50 74 90 101 113 121 126 131 136 136 133 132 132 134 137 141 148 156 163 166 168 171 173 174 173 170 168 167 167 167 167 168 170 172 173 176 181 184 188 192 194 192 195 202 207 208 209 211 213 212 210
46 41 37 37 34 31 27 21 15 11 6 1 356 351 348 354 359 358 355 347 330 317 311 299 293 323 350 3 14 18 18 27 41 46 48 60 81 99 111 118 123 128 132 135 137 138 138 141 145 149 154 160 165 169 172 172 172 172 171 170 169 168 166 165 166 168 171 173 176 180 185 189 193 197 198 196 198 205 212 214 213 212 212 213 213
51 47 41 38 35 32 30 26 22 19 17 13 7 1 358 358 357 355 356 355 338 318 309 303 293 290 308 341 1 18 28 40 52 65 74 79 89 104 115 120 124 126 129 132 137 141 145 149 153 158 163 165 168 172 174 171 168 167 169 169 168 167 166 166 167 169 171 175 180 185 189 193 197 200 200 201 205 210 215 217 217 214 210 211 213
48 46 44 42 39 36 34 31 27 26 24 22 21 18 13 9 4 357 355 355 348 329 313 307 312 321 332 341 307 322 3 65 85 100 106 104 108 118 125 130 133 136 137 139 143 147 151 156 161 166 172 174 174 174 172 167 164 164 166 167 169 170 169 166 164 167 171 176 182 189 194 197 202 203 201 204 212 218 219 219 217 213 211 212 214
41 41 40 39 38 38 36 32 31 29 26 23 24 25 24 22 18 10 2 358 357 353 344 332 328 331 334 329 295 195 175 169 161 147 127 120 124 129 135 141 145 144 143 146 152 157 160 165 171 176 178 179 179 177 173 169 166 165 166 168 173 175 171 165 163 167 170 173 181 191 196 199 207 210 206 207 215 221 221 219 216 214 213 215 215
38 37 36 34 33 34 33 31 31 31 28 26 26 25 24 25 25 20 12 6 3 3 3 357 350 347 341 334 340 69 217 220 185 161 138 130 133 136 138 141 142 140 140 145 152 157 161 168 175 181 184 186 186 184 180 176 172 170 170 173 176 176 172 170 170 172 172 172 179 192 198 203 211 214 212 212 216 218 217 216 215 214 216 218 217
38 36 35 33 30 29 28 28 30 31 30 28 28 26 25 25 23 20 18 13 8 5 2 357 356 358 352 347 11 53 8 355 23 107 132 132 133 136 138 137 136 137 139 141 144 149 154 159 166 174 181 185 184 181 178 176 174 175 177 178 177 176 176 176 174 174 175 176 180 191 201 205 208 209 209 209 211 212 212 213 215 218 220 221 218